Date_Time,Julian_Date,Latitude,Longitude,Instrument_Depth,U,V,Speed,Direction
(yyyy-mm-dd hh:mn:ss UTC),(JD),(+ deg. North),(+ deg. East),(m),(cm/s),(cm/s),(cm/s),(deg True)
1993-01-27 01:30:00 UTC,2449014.562500,28.0575,-90.4864,0100,-21.95,1.52,22.0026,273.9613
1993-01-27 02:00:00 UTC,2449014.583333,28.0575,-90.4864,0100,-21.65,1.50,21.7019,273.9633
1993-01-27 02:30:00 UTC,2449014.604167,28.0575,-90.4864,0100,-19.97,3.62,20.2955,280.2745
1993-01-27 03:00:00 UTC,2449014.625000,28.0575,-90.4864,0100,-19.59,5.31,20.2969,285.1660
1993-01-27 03:30:00 UTC,2449014.645833,28.0575,-90.4864,0100,-17.74,6.24,18.8055,289.3792
1993-01-27 04:00:00 UTC,2449014.666667,28.0575,-90.4864,0100,-16.73,5.78,17.7003,289.0594
1993-01-27 04:30:00 UTC,2449014.687500,28.0575,-90.4864,0100,-16.17,7.91,18.0010,296.0668
1993-01-27 05:00:00 UTC,2449014.708333,28.0575,-90.4864,0100,-14.28,7.65,16.2000,298.1786
1993-01-27 05:30:00 UTC,2449014.729167,28.0575,-90.4864,0100,-10.19,9.01,13.6021,311.4831
1993-01-27 06:00:00 UTC,2449014.750000,28.0575,-90.4864,0100,-10.48,8.18,13.2945,307.9733
1993-01-27 06:30:00 UTC,2449014.770833,28.0575,-90.4864,0100,-8.10,6.99,10.6991,310.7930
1993-01-27 07:00:00 UTC,2449014.791667,28.0575,-90.4864,0100,-6.12,4.83,7.7964,308.2811
1993-01-27 07:30:00 UTC,2449014.812500,28.0575,-90.4864,0100,-7.53,3.73,8.4032,296.3516
1993-01-27 08:00:00 UTC,2449014.833333,28.0575,-90.4864,0100,-6.17,2.34,6.5988,290.7695
1993-01-27 08:30:00 UTC,2449014.854167,28.0575,-90.4864,0100,-6.51,1.10,6.6023,279.5907
1993-01-27 09:00:00 UTC,2449014.875000,28.0575,-90.4864,0100,-5.36,-1.22,5.4971,257.1772
1993-01-27 09:30:00 UTC,2449014.895833,28.0575,-90.4864,0100,-5.70,-0.09,5.7007,269.0954
1993-01-27 10:00:00 UTC,2449014.916667,28.0575,-90.4864,0100,-5.98,0.53,6.0034,275.0648
1993-01-27 10:30:00 UTC,2449014.937500,28.0575,-90.4864,0100,-5.19,0.33,5.2005,273.6382
1993-01-27 11:00:00 UTC,2449014.958333,28.0575,-90.4864,0100,-7.50,0.02,7.5000,270.1528
1993-01-27 11:30:00 UTC,2449014.979167,28.0575,-90.4864,0100,-8.68,0.56,8.6980,273.6914
1993-01-27 12:00:00 UTC,2449015.000000,28.0575,-90.4864,0100,-10.10,-0.16,10.1013,269.0924
1993-01-27 12:30:00 UTC,2449015.020833,28.0575,-90.4864,0100,-10.39,-2.56,10.7007,256.1586
1993-01-27 13:00:00 UTC,2449015.041667,28.0575,-90.4864,0100,-9.58,-4.76,10.6974,243.5787
1993-01-27 13:30:00 UTC,2449015.062500,28.0575,-90.4864,0100,-10.13,-6.61,12.0958,236.8749
1993-01-27 14:00:00 UTC,2449015.083333,28.0575,-90.4864,0100,-12.91,-8.20,15.2941,237.5777
1993-01-27 14:30:00 UTC,2449015.104167,28.0575,-90.4864,0100,-15.12,-10.13,18.1998,236.1790
1993-01-27 15:00:00 UTC,2449015.125000,28.0575,-90.4864,0100,-16.91,-11.76,20.5972,235.1835
1993-01-27 15:30:00 UTC,2449015.145833,28.0575,-90.4864,0100,-16.11,-14.98,21.9985,227.0816
1993-01-27 16:00:00 UTC,2449015.166667,28.0575,-90.4864,0100,-18.21,-13.89,22.9028,232.6648
1993-01-27 16:30:00 UTC,2449015.187500,28.0575,-90.4864,0100,-18.47,-13.53,22.8955,233.7758
1993-01-27 17:00:00 UTC,2449015.208333,28.0575,-90.4864,0100,-21.73,-12.16,24.9010,240.7689
1993-01-27 17:30:00 UTC,2449015.229167,28.0575,-90.4864,0100,-21.17,-12.53,24.6002,239.3798
1993-01-27 18:00:00 UTC,2449015.250000,28.0575,-90.4864,0100,-21.95,-10.43,24.3020,244.5843
1993-01-27 18:30:00 UTC,2449015.270833,28.0575,-90.4864,0100,-21.88,-7.72,23.2020,250.5655
1993-01-27 19:00:00 UTC,2449015.291667,28.0575,-90.4864,0100,-23.85,-3.45,24.0982,261.7690
1993-01-27 19:30:00 UTC,2449015.312500,28.0575,-90.4864,0100,-23.80,-0.09,23.8002,269.7833
1993-01-27 20:00:00 UTC,2449015.333333,28.0575,-90.4864,0100,-24.35,3.50,24.6003,278.1795
1993-01-27 20:30:00 UTC,2449015.354167,28.0575,-90.4864,0100,-24.07,3.33,24.2993,277.8767
1993-01-27 21:00:00 UTC,2449015.375000,28.0575,-90.4864,0100,-19.19,4.46,19.7015,283.0840
1993-01-27 21:30:00 UTC,2449015.395833,28.0575,-90.4864,0100,-17.27,7.43,18.8005,293.2786
1993-01-27 22:00:00 UTC,2449015.416667,28.0575,-90.4864,0100,-16.84,9.02,19.1036,298.1748
1993-01-27 22:30:00 UTC,2449015.437500,28.0575,-90.4864,0100,-13.68,11.23,17.6990,309.3828
1993-01-27 23:00:00 UTC,2449015.458333,28.0575,-90.4864,0100,-8.78,13.61,16.1963,327.1734
1993-01-27 23:30:00 UTC,2449015.479167,28.0575,-90.4864,0100,-6.59,16.97,18.2046,338.7772
1993-01-28 00:00:00 UTC,2449015.500000,28.0575,-90.4864,0100,-5.27,18.36,19.1014,343.9846
1993-01-28 00:30:00 UTC,2449015.520833,28.0575,-90.4864,0100,-4.20,22.82,23.2033,349.5715
1993-01-28 01:00:00 UTC,2449015.541667,28.0575,-90.4864,0100,-3.73,23.51,23.8041,350.9848
1993-01-28 01:30:00 UTC,2449015.562500,28.0575,-90.4864,0100,-3.66,22.30,22.5984,350.6794
1993-01-28 02:00:00 UTC,2449015.583333,28.0575,-90.4864,0100,-3.87,22.57,22.8994,350.2703
1993-01-28 02:30:00 UTC,2449015.604167,28.0575,-90.4864,0100,-3.28,23.57,23.7971,352.0776
1993-01-28 03:00:00 UTC,2449015.625000,28.0575,-90.4864,0100,-3.81,23.19,23.5009,350.6700
1993-01-28 03:30:00 UTC,2449015.645833,28.0575,-90.4864,0100,-2.57,22.45,22.5966,353.4694
1993-01-28 04:00:00 UTC,2449015.666667,28.0575,-90.4864,0100,-1.88,22.22,22.2994,355.1638
1993-01-28 04:30:00 UTC,2449015.687500,28.0575,-90.4864,0100,-0.16,21.20,21.2006,359.5676
1993-01-28 05:00:00 UTC,2449015.708333,28.0575,-90.4864,0100,0.09,19.70,19.7002,0.2618
1993-01-28 05:30:00 UTC,2449015.729167,28.0575,-90.4864,0100,2.09,18.99,19.1047,6.2806
1993-01-28 06:00:00 UTC,2449015.750000,28.0575,-90.4864,0100,3.93,16.64,17.0978,13.2885
1993-01-28 06:30:00 UTC,2449015.770833,28.0575,-90.4864,0100,4.59,15.22,15.8971,16.7821
1993-01-28 07:00:00 UTC,2449015.791667,28.0575,-90.4864,0100,5.16,11.93,12.9981,23.3896
1993-01-28 07:30:00 UTC,2449015.812500,28.0575,-90.4864,0100,5.60,11.40,12.7012,26.1616
1993-01-28 08:00:00 UTC,2449015.833333,28.0575,-90.4864,0100,4.83,11.74,12.6947,22.3629
1993-01-28 08:30:00 UTC,2449015.854167,28.0575,-90.4864,0100,5.41,10.82,12.0971,26.5651
1993-01-28 09:00:00 UTC,2449015.875000,28.0575,-90.4864,0100,7.28,10.04,12.4016,35.9459
1993-01-28 09:30:00 UTC,2449015.895833,28.0575,-90.4864,0100,8.33,9.98,12.9996,39.8507
1993-01-28 10:00:00 UTC,2449015.916667,28.0575,-90.4864,0100,9.60,10.05,13.8983,43.6881
1993-01-28 10:30:00 UTC,2449015.937500,28.0575,-90.4864,0100,10.31,9.32,13.8981,47.8871
1993-01-28 11:00:00 UTC,2449015.958333,28.0575,-90.4864,0100,10.39,10.11,14.4970,45.7825
1993-01-28 11:30:00 UTC,2449015.979167,28.0575,-90.4864,0100,10.00,11.97,15.5975,39.8761
1993-01-28 12:00:00 UTC,2449016.000000,28.0575,-90.4864,0100,10.62,10.59,14.9977,45.0810
1993-01-28 12:30:00 UTC,2449016.020833,28.0575,-90.4864,0100,12.25,9.17,15.3020,53.1825
1993-01-28 13:00:00 UTC,2449016.041667,28.0575,-90.4864,0100,12.41,8.96,15.3065,54.1708
1993-01-28 13:30:00 UTC,2449016.062500,28.0575,-90.4864,0100,13.67,7.52,15.6019,61.1844
1993-01-28 14:00:00 UTC,2449016.083333,28.0575,-90.4864,0100,15.09,5.00,15.8968,71.6676
1993-01-28 14:30:00 UTC,2449016.104167,28.0575,-90.4864,0100,14.59,3.48,14.9993,76.5845
1993-01-28 15:00:00 UTC,2449016.125000,28.0575,-90.4864,0100,13.85,3.13,14.1993,77.2655
1993-01-28 15:30:00 UTC,2449016.145833,28.0575,-90.4864,0100,13.72,2.23,13.9000,80.7681
1993-01-28 16:00:00 UTC,2449016.166667,28.0575,-90.4864,0100,13.60,-0.23,13.6019,90.9689
1993-01-28 16:30:00 UTC,2449016.187500,28.0575,-90.4864,0100,14.15,-1.18,14.1991,94.7670
1993-01-28 17:00:00 UTC,2449016.208333,28.0575,-90.4864,0100,13.55,-1.13,13.5970,94.7671
1993-01-28 17:30:00 UTC,2449016.229167,28.0575,-90.4864,0100,13.23,-1.36,13.2997,95.8692
1993-01-28 18:00:00 UTC,2449016.250000,28.0575,-90.4864,0100,13.00,0.03,13.0000,89.8678
1993-01-28 18:30:00 UTC,2449016.270833,28.0575,-90.4864,0100,12.34,1.24,12.4021,84.2618
1993-01-28 19:00:00 UTC,2449016.291667,28.0575,-90.4864,0100,12.01,1.50,12.1033,82.8809
1993-01-28 19:30:00 UTC,2449016.312500,28.0575,-90.4864,0100,9.90,3.20,10.4043,72.0875
1993-01-28 20:00:00 UTC,2449016.333333,28.0575,-90.4864,0100,8.41,3.73,9.2001,66.0818
1993-01-28 20:30:00 UTC,2449016.354167,28.0575,-90.4864,0100,8.40,2.95,8.9029,70.6492
1993-01-28 21:00:00 UTC,2449016.375000,28.0575,-90.4864,0100,7.93,3.57,8.6965,65.7632
1993-01-28 21:30:00 UTC,2449016.395833,28.0575,-90.4864,0100,6.52,5.76,8.6999,48.5415
1993-01-28 22:00:00 UTC,2449016.416667,28.0575,-90.4864,0100,4.21,3.85,5.7050,47.5574
1993-01-28 22:30:00 UTC,2449016.437500,28.0575,-90.4864,0100,7.55,8.00,11.0001,43.3424
1993-01-28 23:00:00 UTC,2449016.458333,28.0575,-90.4864,0100,8.78,11.92,14.8046,36.3745
1993-01-28 23:30:00 UTC,2449016.479167,28.0575,-90.4864,0100,8.61,14.07,16.4954,31.4641
1993-01-29 00:00:00 UTC,2449016.500000,28.0575,-90.4864,0100,9.12,14.11,16.8008,32.8766
1993-01-29 00:30:00 UTC,2449016.520833,28.0575,-90.4864,0100,10.21,14.82,17.9966,34.5643
1993-01-29 01:00:00 UTC,2449016.541667,28.0575,-90.4864,0100,11.41,14.56,18.4982,38.0842
1993-01-29 01:30:00 UTC,2449016.562500,28.0575,-90.4864,0100,12.43,16.05,20.3004,37.7562
1993-01-29 02:00:00 UTC,2449016.583333,28.0575,-90.4864,0100,12.75,17.56,21.7006,35.9827
1993-01-29 02:30:00 UTC,2449016.604167,28.0575,-90.4864,0100,13.99,16.98,22.0009,39.4855
1993-01-29 03:00:00 UTC,2449016.625000,28.0575,-90.4864,0100,14.15,17.62,22.5984,38.7667
1993-01-29 03:30:00 UTC,2449016.645833,28.0575,-90.4864,0100,14.35,18.99,23.8022,37.0769
1993-01-29 04:00:00 UTC,2449016.666667,28.0575,-90.4864,0100,15.17,19.37,24.6034,38.0670
1993-01-29 04:30:00 UTC,2449016.687500,28.0575,-90.4864,0100,15.54,19.84,25.2015,38.0704
1993-01-29 05:00:00 UTC,2449016.708333,28.0575,-90.4864,0100,14.73,20.82,25.5038,35.2791
1993-01-29 05:30:00 UTC,2449016.729167,28.0575,-90.4864,0100,15.66,21.26,26.4050,36.3752
1993-01-29 06:00:00 UTC,2449016.750000,28.0575,-90.4864,0100,16.39,21.46,27.0030,37.3707
1993-01-29 06:30:00 UTC,2449016.770833,28.0575,-90.4864,0100,17.37,21.32,27.5002,39.1707
1993-01-29 07:00:00 UTC,2449016.791667,28.0575,-90.4864,0100,18.16,22.61,29.0000,38.7709
1993-01-29 07:30:00 UTC,2449016.812500,28.0575,-90.4864,0100,19.23,25.83,32.2022,36.6671
1993-01-29 08:00:00 UTC,2449016.833333,28.0575,-90.4864,0100,20.58,26.56,33.6001,37.7703
1993-01-29 08:30:00 UTC,2449016.854167,28.0575,-90.4864,0100,22.50,27.33,35.4003,39.4636
1993-01-29 09:00:00 UTC,2449016.875000,28.0575,-90.4864,0100,23.61,25.97,35.0980,42.2748
1993-01-29 09:30:00 UTC,2449016.895833,28.0575,-90.4864,0100,24.13,25.90,35.3987,42.9738
1993-01-29 10:00:00 UTC,2449016.916667,28.0575,-90.4864,0100,24.67,23.68,34.1958,46.1730
1993-01-29 10:30:00 UTC,2449016.937500,28.0575,-90.4864,0100,24.16,22.63,33.1032,46.8729
1993-01-29 11:00:00 UTC,2449016.958333,28.0575,-90.4864,0100,24.34,20.15,31.5984,50.3802
1993-01-29 11:30:00 UTC,2449016.979167,28.0575,-90.4864,0100,25.28,18.45,31.2967,53.8771
1993-01-29 12:00:00 UTC,2449017.000000,28.0575,-90.4864,0100,24.92,18.94,31.3006,52.7640
1993-01-29 12:30:00 UTC,2449017.020833,28.0575,-90.4864,0100,24.93,19.42,31.6013,52.0821
1993-01-29 13:00:00 UTC,2449017.041667,28.0575,-90.4864,0100,25.54,19.61,32.2001,52.4824
1993-01-29 13:30:00 UTC,2449017.062500,28.0575,-90.4864,0100,26.75,20.33,33.5987,52.7652
1993-01-29 14:00:00 UTC,2449017.083333,28.0575,-90.4864,0100,26.97,19.19,33.1004,54.5670
1993-01-29 14:30:00 UTC,2449017.104167,28.0575,-90.4864,0100,28.61,17.62,33.6005,58.3724
1993-01-29 15:00:00 UTC,2449017.125000,28.0575,-90.4864,0100,28.65,17.17,33.4011,59.0657
1993-01-29 15:30:00 UTC,2449017.145833,28.0575,-90.4864,0100,27.30,15.91,31.5978,59.7671
1993-01-29 16:00:00 UTC,2449017.166667,28.0575,-90.4864,0100,26.44,15.59,30.6940,59.4748
1993-01-29 16:30:00 UTC,2449017.187500,28.0575,-90.4864,0100,25.40,13.35,28.6946,62.2740
1993-01-29 17:00:00 UTC,2449017.208333,28.0575,-90.4864,0100,25.83,13.18,28.9983,62.9666
1993-01-29 17:30:00 UTC,2449017.229167,28.0575,-90.4864,0100,25.34,12.15,28.1023,64.3833
1993-01-29 18:00:00 UTC,2449017.250000,28.0575,-90.4864,0100,23.59,13.14,27.0027,60.8815
1993-01-29 18:30:00 UTC,2449017.270833,28.0575,-90.4864,0100,23.97,12.44,27.0058,62.5715
1993-01-29 19:00:00 UTC,2449017.291667,28.0575,-90.4864,0100,23.85,12.01,26.7032,63.2718
1993-01-29 19:30:00 UTC,2449017.312500,28.0575,-90.4864,0100,24.13,10.71,26.4000,66.0662
1993-01-29 20:00:00 UTC,2449017.333333,28.0575,-90.4864,0100,23.81,12.73,26.9994,61.8688
1993-01-29 20:30:00 UTC,2449017.354167,28.0575,-90.4864,0100,23.16,13.88,27.0007,59.0654
1993-01-29 21:00:00 UTC,2449017.375000,28.0575,-90.4864,0100,22.71,15.16,27.3051,56.2750
1993-01-29 21:30:00 UTC,2449017.395833,28.0575,-90.4864,0100,24.02,13.39,27.5000,60.8624
1993-01-29 22:00:00 UTC,2449017.416667,28.0575,-90.4864,0100,24.03,14.57,28.1021,58.7705
1993-01-29 22:30:00 UTC,2449017.437500,28.0575,-90.4864,0100,22.52,15.43,27.2990,55.5823
1993-01-29 23:00:00 UTC,2449017.458333,28.0575,-90.4864,0100,21.65,15.63,26.7024,54.1730
1993-01-29 23:30:00 UTC,2449017.479167,28.0575,-90.4864,0100,18.47,16.70,24.9004,47.8811
1993-01-30 00:00:00 UTC,2449017.500000,28.0575,-90.4864,0100,18.49,18.00,25.8047,45.7693
1993-01-30 00:30:00 UTC,2449017.520833,28.0575,-90.4864,0100,16.78,19.60,25.8017,40.5676
1993-01-30 01:00:00 UTC,2449017.541667,28.0575,-90.4864,0100,14.81,21.49,26.0990,34.5730
1993-01-30 01:30:00 UTC,2449017.562500,28.0575,-90.4864,0100,15.76,22.53,27.4951,34.9732
1993-01-30 02:00:00 UTC,2449017.583333,28.0575,-90.4864,0100,16.67,24.82,29.8985,33.8867
1993-01-30 02:30:00 UTC,2449017.604167,28.0575,-90.4864,0100,17.44,24.29,29.9025,35.6780
1993-01-30 03:00:00 UTC,2449017.625000,28.0575,-90.4864,0100,18.04,24.22,30.2002,36.6802
1993-01-30 03:30:00 UTC,2449017.645833,28.0575,-90.4864,0100,19.20,23.31,30.1993,39.4776
1993-01-30 04:00:00 UTC,2449017.666667,28.0575,-90.4864,0100,19.66,24.74,31.6004,38.4729
1993-01-30 04:30:00 UTC,2449017.687500,28.0575,-90.4864,0100,18.36,28.85,34.1967,32.4725
1993-01-30 05:00:00 UTC,2449017.708333,28.0575,-90.4864,0100,21.21,33.32,39.4979,32.4790
1993-01-30 05:30:00 UTC,2449017.729167,28.0575,-90.4864,0100,23.03,33.80,40.9001,34.2690
1993-01-30 06:00:00 UTC,2449017.750000,28.0575,-90.4864,0100,20.90,33.75,39.6973,31.7682
1993-01-30 06:30:00 UTC,2449017.770833,28.0575,-90.4864,0100,21.21,33.32,39.4979,32.4790
1993-01-30 07:00:00 UTC,2449017.791667,28.0575,-90.4864,0100,19.67,33.56,38.8996,30.3752
1993-01-30 07:30:00 UTC,2449017.812500,28.0575,-90.4864,0100,20.17,32.56,38.3012,31.7770
1993-01-30 08:00:00 UTC,2449017.833333,28.0575,-90.4864,0100,18.44,31.85,36.8029,30.0693
1993-01-30 08:30:00 UTC,2449017.854167,28.0575,-90.4864,0100,20.17,32.56,38.3012,31.7770
1993-01-30 09:00:00 UTC,2449017.875000,28.0575,-90.4864,0100,21.06,30.91,37.4026,34.2679
1993-01-30 09:30:00 UTC,2449017.895833,28.0575,-90.4864,0100,26.40,32.40,41.7938,39.1737
1993-01-30 10:00:00 UTC,2449017.916667,28.0575,-90.4864,0100,30.21,30.45,42.8934,44.7733
1993-01-30 10:30:00 UTC,2449017.937500,28.0575,-90.4864,0100,32.24,27.08,42.1040,49.9714
1993-01-30 11:00:00 UTC,2449017.958333,28.0575,-90.4864,0100,35.32,22.35,41.7974,57.6749
1993-01-30 11:30:00 UTC,2449017.979167,28.0575,-90.4864,0100,34.72,21.05,40.6027,58.7724
1993-01-30 12:00:00 UTC,2449018.000000,28.0575,-90.4864,0100,34.31,21.71,40.6017,57.6760
1993-01-30 12:30:00 UTC,2449018.020833,28.0575,-90.4864,0100,34.91,18.90,39.6978,61.5692
1993-01-30 13:00:00 UTC,2449018.041667,28.0575,-90.4864,0100,35.82,16.65,39.5006,65.0699
1993-01-30 13:30:00 UTC,2449018.062500,28.0575,-90.4864,0100,34.65,17.68,38.8999,62.9673
1993-01-30 14:00:00 UTC,2449018.083333,28.0575,-90.4864,0100,35.50,18.42,39.9943,62.5764
1993-01-30 14:30:00 UTC,2449018.104167,28.0575,-90.4864,0100,35.82,16.65,39.5006,65.0699
1993-01-30 15:00:00 UTC,2449018.125000,28.0575,-90.4864,0100,34.92,14.20,37.6968,67.8712
1993-01-30 15:30:00 UTC,2449018.145833,28.0575,-90.4864,0100,33.91,15.05,37.0997,66.0673
1993-01-30 16:00:00 UTC,2449018.166667,28.0575,-90.4864,0100,34.25,11.08,35.9976,72.0734
1993-01-30 16:30:00 UTC,2449018.187500,28.0575,-90.4864,0100,32.37,8.99,33.5952,74.4786
1993-01-30 17:00:00 UTC,2449018.208333,28.0575,-90.4864,0100,26.55,8.23,27.7963,72.7775
1993-01-30 17:30:00 UTC,2449018.229167,28.0575,-90.4864,0100,24.59,7.81,25.8005,72.3797
1993-01-30 18:00:00 UTC,2449018.250000,28.0575,-90.4864,0100,22.60,5.23,23.1973,76.9702
1993-01-30 18:30:00 UTC,2449018.270833,28.0575,-90.4864,0100,19.17,5.69,19.9966,73.4682
1993-01-30 19:00:00 UTC,2449018.291667,28.0575,-90.4864,0100,16.87,5.36,17.7010,72.3737
1993-01-30 19:30:00 UTC,2449018.312500,28.0575,-90.4864,0100,14.73,5.99,15.9014,67.8707
1993-01-30 20:00:00 UTC,2449018.333333,28.0575,-90.4864,0100,14.24,4.04,14.8020,74.1609
1993-01-30 20:30:00 UTC,2449018.354167,28.0575,-90.4864,0100,12.43,5.52,13.6006,66.0546
1993-01-30 21:00:00 UTC,2449018.375000,28.0575,-90.4864,0100,10.78,6.72,12.7030,58.0616
1993-01-30 21:30:00 UTC,2449018.395833,28.0575,-90.4864,0100,10.02,6.42,11.9003,57.3516
1993-01-30 22:00:00 UTC,2449018.416667,28.0575,-90.4864,0100,9.29,6.95,11.6020,53.1992
1993-01-30 22:30:00 UTC,2449018.437500,28.0575,-90.4864,0100,7.18,9.74,12.1004,36.3964
1993-01-30 23:00:00 UTC,2449018.458333,28.0575,-90.4864,0100,7.22,9.46,11.9004,37.3514
1993-01-30 23:30:00 UTC,2449018.479167,28.0575,-90.4864,0100,5.69,15.17,16.2020,20.5602
1993-01-31 00:00:00 UTC,2449018.500000,28.0575,-90.4864,0100,5.11,16.95,17.7035,16.7767
1993-01-31 00:30:00 UTC,2449018.520833,28.0575,-90.4864,0100,8.01,20.17,21.7023,21.6592
1993-01-31 01:00:00 UTC,2449018.541667,28.0575,-90.4864,0100,10.12,21.54,23.7989,25.1652
1993-01-31 01:30:00 UTC,2449018.562500,28.0575,-90.4864,0100,11.66,21.32,24.3002,28.6744
1993-01-31 02:00:00 UTC,2449018.583333,28.0575,-90.4864,0100,10.99,20.43,23.1984,28.2773
1993-01-31 02:30:00 UTC,2449018.604167,28.0575,-90.4864,0100,11.87,18.88,22.3014,32.1579
1993-01-31 03:00:00 UTC,2449018.625000,28.0575,-90.4864,0100,13.80,16.75,21.7026,39.4844
1993-01-31 03:30:00 UTC,2449018.645833,28.0575,-90.4864,0100,14.53,19.23,24.1022,37.0743
1993-01-31 04:00:00 UTC,2449018.666667,28.0575,-90.4864,0100,14.51,19.49,24.2982,36.6671
1993-01-31 04:30:00 UTC,2449018.687500,28.0575,-90.4864,0100,15.68,19.73,25.2019,38.4752
1993-01-31 05:00:00 UTC,2449018.708333,28.0575,-90.4864,0100,16.82,19.16,25.4954,41.2789
1993-01-31 05:30:00 UTC,2449018.729167,28.0575,-90.4864,0100,16.84,19.94,26.0996,40.1822
1993-01-31 06:00:00 UTC,2449018.750000,28.0575,-90.4864,0100,17.62,18.01,25.1957,44.3729
1993-01-31 06:30:00 UTC,2449018.770833,28.0575,-90.4864,0100,17.08,19.74,26.1035,40.8679
1993-01-31 07:00:00 UTC,2449018.791667,28.0575,-90.4864,0100,18.69,18.64,26.3963,45.0767
1993-01-31 07:30:00 UTC,2449018.812500,28.0575,-90.4864,0100,18.91,17.10,25.4951,47.8775
1993-01-31 08:00:00 UTC,2449018.833333,28.0575,-90.4864,0100,19.69,17.13,26.0985,48.9772
1993-01-31 08:30:00 UTC,2449018.854167,28.0575,-90.4864,0100,19.27,18.05,26.4033,46.8723
1993-01-31 09:00:00 UTC,2449018.875000,28.0575,-90.4864,0100,18.70,18.20,26.0946,45.7763
1993-01-31 09:30:00 UTC,2449018.895833,28.0575,-90.4864,0100,17.69,19.19,26.0997,42.6709
1993-01-31 10:00:00 UTC,2449018.916667,28.0575,-90.4864,0100,19.33,19.28,27.3014,45.0742
1993-01-31 10:30:00 UTC,2449018.937500,28.0575,-90.4864,0100,20.03,18.11,27.0032,47.8819
1993-01-31 11:00:00 UTC,2449018.958333,28.0575,-90.4864,0100,20.80,17.22,27.0031,50.3792
1993-01-31 11:30:00 UTC,2449018.979167,28.0575,-90.4864,0100,20.25,18.31,27.3005,47.8802
1993-01-31 12:00:00 UTC,2449019.000000,28.0575,-90.4864,0100,19.57,17.27,26.1005,48.5725
1993-01-31 12:30:00 UTC,2449019.020833,28.0575,-90.4864,0100,19.40,15.12,24.5962,52.0678
1993-01-31 13:00:00 UTC,2449019.041667,28.0575,-90.4864,0100,17.23,10.74,20.3032,58.0634
1993-01-31 13:30:00 UTC,2449019.062500,28.0575,-90.4864,0100,15.72,8.76,17.9960,60.8712
1993-01-31 14:00:00 UTC,2449019.083333,28.0575,-90.4864,0100,19.87,7.40,21.2032,69.5736
1993-01-31 14:30:00 UTC,2449019.104167,28.0575,-90.4864,0100,20.48,8.04,22.0016,68.5661
1993-01-31 15:00:00 UTC,2449019.125000,28.0575,-90.4864,0100,20.38,8.29,22.0016,67.8649
1993-01-31 15:30:00 UTC,2449019.145833,28.0575,-90.4864,0100,19.79,8.90,21.6992,65.7855
1993-01-31 16:00:00 UTC,2449019.166667,28.0575,-90.4864,0100,21.47,10.95,24.1011,62.9778
1993-01-31 16:30:00 UTC,2449019.187500,28.0575,-90.4864,0100,21.91,11.18,24.5976,62.9662
1993-01-31 17:00:00 UTC,2449019.208333,28.0575,-90.4864,0100,22.45,10.77,24.8997,64.3714
1993-01-31 17:30:00 UTC,2449019.229167,28.0575,-90.4864,0100,21.71,12.80,25.2025,59.4768
1993-01-31 18:00:00 UTC,2449019.250000,28.0575,-90.4864,0100,20.62,12.85,24.2962,58.0696
1993-01-31 18:30:00 UTC,2449019.270833,28.0575,-90.4864,0100,19.20,12.48,22.8996,56.9761
1993-01-31 19:00:00 UTC,2449019.291667,28.0575,-90.4864,0100,19.53,10.13,22.0009,62.5847
1993-01-31 19:30:00 UTC,2449019.312500,28.0575,-90.4864,0100,20.92,10.03,23.2002,64.3848
1993-01-31 20:00:00 UTC,2449019.333333,28.0575,-90.4864,0100,20.70,8.29,22.2983,68.1747
1993-01-31 20:30:00 UTC,2449019.354167,28.0575,-90.4864,0100,21.24,5.74,22.0019,74.8773
1993-01-31 21:00:00 UTC,2449019.375000,28.0575,-90.4864,0100,20.13,4.40,20.6053,77.6702
1993-01-31 21:30:00 UTC,2449019.395833,28.0575,-90.4864,0100,18.66,4.08,19.1008,77.6664
1993-01-31 22:00:00 UTC,2449019.416667,28.0575,-90.4864,0100,17.86,4.83,18.5016,74.8671
1993-01-31 22:30:00 UTC,2449019.437500,28.0575,-90.4864,0100,17.68,4.32,18.2001,76.2692
1993-01-31 23:00:00 UTC,2449019.458333,28.0575,-90.4864,0100,15.78,3.65,16.1966,76.9762
1993-01-31 23:30:00 UTC,2449019.479167,28.0575,-90.4864,0100,15.57,3.20,15.8954,78.3861
1993-02-01 00:00:00 UTC,2449019.500000,28.0575,-90.4864,0100,15.47,3.69,15.9040,76.5841
1993-02-01 00:30:00 UTC,2449019.520833,28.0575,-90.4864,0100,14.78,4.98,15.5964,71.3792
1993-02-01 01:00:00 UTC,2449019.541667,28.0575,-90.4864,0100,13.35,3.88,13.9024,73.7942
1993-02-01 01:30:00 UTC,2449019.562500,28.0575,-90.4864,0100,12.80,3.63,13.3048,74.1670
1993-02-01 02:00:00 UTC,2449019.583333,28.0575,-90.4864,0100,11.64,3.30,12.0987,74.1717
1993-02-01 02:30:00 UTC,2449019.604167,28.0575,-90.4864,0100,12.24,1.99,12.4007,80.7655
1993-02-01 03:00:00 UTC,2449019.625000,28.0575,-90.4864,0100,12.66,0.96,12.6963,85.6636
1993-02-01 03:30:00 UTC,2449019.645833,28.0575,-90.4864,0100,13.03,2.68,13.3028,78.3775
1993-02-01 04:00:00 UTC,2449019.666667,28.0575,-90.4864,0100,13.30,0.03,13.3000,89.8708
1993-02-01 04:30:00 UTC,2449019.687500,28.0575,-90.4864,0100,14.18,0.72,14.1983,87.0933
1993-02-01 05:00:00 UTC,2449019.708333,28.0575,-90.4864,0100,13.85,1.22,13.9036,84.9660
1993-02-01 05:30:00 UTC,2449019.729167,28.0575,-90.4864,0100,11.89,-0.56,11.9032,92.6965
1993-02-01 06:00:00 UTC,2449019.750000,28.0575,-90.4864,0100,12.62,-3.12,13.0000,103.8866
1993-02-01 06:30:00 UTC,2449019.770833,28.0575,-90.4864,0100,12.99,0.50,12.9996,87.7957
1993-02-01 07:00:00 UTC,2449019.791667,28.0575,-90.4864,0100,13.90,-0.31,13.9035,91.2776
1993-02-01 07:30:00 UTC,2449019.812500,28.0575,-90.4864,0100,14.78,-0.69,14.7961,92.6729
1993-02-01 08:00:00 UTC,2449019.833333,28.0575,-90.4864,0100,14.72,-1.51,14.7972,95.8570
1993-02-01 08:30:00 UTC,2449019.854167,28.0575,-90.4864,0100,14.99,-0.62,15.0028,92.3684
1993-02-01 09:00:00 UTC,2449019.875000,28.0575,-90.4864,0100,14.99,0.58,15.0012,87.7842
1993-02-01 09:30:00 UTC,2449019.895833,28.0575,-90.4864,0100,15.27,-1.01,15.3034,93.7842
1993-02-01 10:00:00 UTC,2449019.916667,28.0575,-90.4864,0100,15.33,-2.92,15.6056,100.7843
1993-02-01 10:30:00 UTC,2449019.937500,28.0575,-90.4864,0100,15.75,-2.21,15.9043,97.9874
1993-02-01 11:00:00 UTC,2449019.958333,28.0575,-90.4864,0100,15.88,-3.22,16.2032,101.4625
1993-02-01 11:30:00 UTC,2449019.979167,28.0575,-90.4864,0100,17.17,-2.83,17.4017,99.3595
1993-02-01 12:00:00 UTC,2449020.000000,28.0575,-90.4864,0100,19.08,-0.79,19.0963,92.3709
1993-02-01 12:30:00 UTC,2449020.020833,28.0575,-90.4864,0100,20.29,-0.45,20.2950,91.2705
1993-02-01 13:00:00 UTC,2449020.041667,28.0575,-90.4864,0100,17.72,-3.15,17.9978,100.0799
1993-02-01 13:30:00 UTC,2449020.062500,28.0575,-90.4864,0100,16.65,-2.21,16.7960,97.5608
1993-02-01 14:00:00 UTC,2449020.083333,28.0575,-90.4864,0100,15.27,-0.90,15.2965,93.3731
1993-02-01 14:30:00 UTC,2449020.104167,28.0575,-90.4864,0100,16.84,-2.99,17.1034,100.0681
1993-02-01 15:00:00 UTC,2449020.125000,28.0575,-90.4864,0100,17.32,-6.50,18.4995,110.5705